Weather in Aleksandrovka Tretya

Russia / Saratov Oblast     51°40′53″N   44°09′02″E
temp.,
°C
wind,
m/s
gust,
m/s
humid.,
%
clouds,
%
prec.,
mm/h
press.,
hPa
HPBL,
m
19 january, wed
wed1901:00−2s5119599 0.4 1010556
04:00−2s5996100 0.6 1011440
07:00−2ssw489795 0.4 1012398
10:00−9sw389992 0.4 1015104
13:00−8sw36965 0.0 1016153
16:00−8s36965 0.0 1017102
19:00−15ssw2210091 0.0 101814
22:00−17ssw11100100 0.0 10199
20 january, thu
thu2001:00−18s11100100 0.0 10209
04:00−16sse11100100 0.1 102010
07:00−18s22100100 0.0 10219
10:00−18ssw22100100 0.1 102122
13:00−11ssw249773 0.0 1021108
16:00−13ssw229730 0.0 102010
19:00−18sse2210069 0.0 102114
22:00−18sse3310084 0.0 102134
21 january, fri
fri2101:00−20s2210099 0.0 102230
04:00−19s34100100 0.0 102146
07:00−17sse36100100 0.0 102070
10:00−17sse49100100 0.1 1020118
13:00−11sse61495100 0.0 1019316
16:00−8sse71689100 0.0 1017448
19:00−8sse81788100 0.0 1016460
22:00−8sse81793100 0.3 1015514
22 january, sat
sat2201:00−6sse71495100 0.9 1015461
04:00−5sse61296100 2.6 1015410
07:00−4sse5996100 0.5 1015291
10:00−4se4797100 1.1 1016228
13:00−2se51297100 1.9 1016627
16:00−2sse81496100 3.0 1016756
19:00−2sse81596100 2.0 1018648
22:00−3sse71396100 2.4 1019562
23 january, sun
sun2301:00−3s4897100 1.4 1021431
04:00−4sw1298100 2.7 102376
07:00−5nnw1198100 1.1 102430
10:00−5ese1297100 1.5 102681
13:00−3se2396100 0.6 1028265
16:00−3ese3597100 1.6 1029309
19:00−4ese5996100 1.1 1030324
22:00−5e51196100 3.5 1031350